TSS

The Salem Special - cemetery at Havelock

Station: cemetery - T Race

Distance: 43 Kilometers    

Release: 16-Sep-2020 10:00

Weather Release:    Arrival:

Wind at Release:     Wind at Arrival:

Temp at Release: °    Temp at Arrival: °

Lofts: 120

Birds: 417

Clocked: 362

Good Luck to Everyone!
Drops Pos Breeder Pigeon Name Color Sex Ent Arrival Speed To Win Elg Pd
1 Weekend At Bernie's - ON 2025-WH20-WPG BB H 1 10:03:24.17 12636.528 00:00:00 Yes
2 Wolfhillloft - ON 0210-CU20-WFHL Crazy Bull BB H 1 10:03:45.08 11462.591 00:00:21 Yes
3 Assyrian Loft - ON 3930-CU20-CU BC H 1 10:12:00.77 3579.506 00:08:37 Yes
4 4-C Loft - SK 0003-CU20-REG Kenny RED H 1 10:38:32.35 1115.748 00:35:08 Yes
5 J K Loft 2 - ON 0035-CU20-JKL BB H 1 10:38:32.49 1115.680 00:35:08 Yes
6 Brothers Loft 2 - BC 0106-CU20-NR BB H 1 10:38:33.22 1115.328 00:35:09 Yes
7 John Black - ON 8024-CU20-MISS DCPD H 1 10:38:33.75 1115.073 00:35:10 Yes
8 East West - ON 22555-CU20-CU BB H 1 10:38:35.92 1114.028 00:35:12 Yes
9 Big Andy - FL 0212-AU20-BGAN BB H 1 10:38:36.27 1113.860 00:35:12 Yes
10 Walt & Dan Gregoruk - ON 0214-CU20-TBAY BCWF H 1 10:38:36.74 1113.634 00:35:13 Missing
11 Brad Wogan - ON 3212-CU20-CU BC H 1 10:38:36.86 1113.576 00:35:13 Yes
12 Weekend At Bernie's - ON 2020-WH20-WPG RED H 2 10:38:37.23 1113.398 00:35:13 Yes
13 Da Cunha Team - ON 9035-CU20-CU BB H 1 10:38:37.84 1113.106 00:35:14 Yes
14 A Tanaka - ON 8492-CU20-CU BCWF H 1 10:38:38.04 1113.010 00:35:14 Yes
15 4-C Loft - SK 0004-CU20-REG Billy RED H 2 10:38:38.41 1112.831 00:35:14 Yes
16 Silvio/Karges - ON 2226-AU20-VITA SLTE H 1 10:38:38.76 1112.664 00:35:15 Yes
17 Brad Wogan - ON 2032-CU20-KCH BC H 2 10:38:39.28 1112.414 00:35:15 Yes
18 Werner Vahle - ON 8747-CU20-CU RED H 1 10:38:39.61 1112.256 00:35:15 Yes
19 Jack's Fire Loft - QC 8536-CU20-CU BC H 1 10:38:41.05 1111.566 00:35:17 Yes
20 Dutch Touch Int - ON 3681-CU20-OL BC H 1 10:38:41.26 1111.465 00:35:17 Yes
21 Pigeonempire.Com B & B - ON 5533-CU20-CU BC H 1 10:38:43.55 1110.370 00:35:19 Yes
22 Bonneterre - ON 10250-CU20-CU RDPD H 1 10:38:45.19 1109.587 00:35:21 Missing
23 Appi's Loft - AB 20010-CU20-APPI BBWF H 1 10:39:22.37 1092.124 00:35:58 Yes
24 Chicady - ON 57230-AU20-ARPU CHOC H 1 10:39:25.15 1090.840 00:36:01 Yes
25 Skyview Loft 2 - ON 10072-CU20-CU BB H 1 10:39:27.57 1089.725 00:36:03 Missing
26 Turkiewicz Loft - ON 0519-CU20-CP BC H 1 10:39:29.23 1088.962 00:36:05 Yes
27 Dutch Touch Int - ON 3676-CU20-OL BCWF H 2 10:39:38.87 1084.549 00:36:15 Yes
28 Werner Vahle - ON 8742-CU20-CU BB H 2 10:39:38.98 1084.499 00:36:15 Yes
29 Weekend At Bernie's - ON 1003-CU20-CU BB H 3 10:39:38.99 1084.494 00:36:15 Yes
30 Big Andy - FL 0205-AU20-BGAN BB H 2 10:39:39.10 1084.444 00:36:15 Yes
31 Werner Vahle - ON 8744-CU20-CU BB H 3 10:39:39.81 1084.120 00:36:16 Yes
32 Da Cunha Team - ON 9036-CU20-CU BB H 2 10:39:39.93 1084.065 00:36:16 Yes
33 Three Kings Loft - AB 7050-CU20-CU Janjan 1 BB H 1 10:39:40.05 1084.011 00:36:16 Yes
34 Pigeonempire.Com Guido Madrusan - ON 5545-CU20-CU BC H 1 10:39:40.16 1083.961 00:36:16 Yes
35 Granby Loft - QC 1473-CU20-CU BB H 1 10:39:40.40 1083.851 00:36:16 Yes
36 King Conch Loft - ON 2033-CU20-KCH BB H 1 10:39:40.42 1083.842 00:36:16 Yes
37 Maple Lofts - ON 22805-CU20-CU BB H 1 10:39:40.88 1083.633 00:36:17 Yes
38 J K Loft 2 - ON 0036-CU20-JKL BB H 2 10:39:41.47 1083.365 00:36:17 Yes
39 Joe Splinter - ON 5716-CU20-CU BB H 1 10:39:41.62 1083.296 00:36:17 Yes
40 Dutch Touch Int - ON 3684-CU20-OL BC H 3 10:39:41.74 1083.241 00:36:18 Yes
41 Universal Pigeons - ON 13153-CU20-CU BBPD H 1 10:39:41.87 1083.183 00:36:18 Yes
42 P B B B - ON 1830-CU20-WW BB H 1 10:39:42.21 1083.028 00:36:18 Yes
43 Bartosz And Bill - ON 13304-CU20-CU BB H 1 10:39:42.23 1083.019 00:36:18 Yes
44 Adirondack Team - NY 4429-AU20-AA DC H 1 10:39:42.36 1082.960 00:36:18 Yes
45 Dyck Lofts - AB 8655-CU20-CU BBPD H 1 10:39:42.72 1082.796 00:36:19 Yes
46 Milandrej Team - ON 0793-SK20-0777 BC H 1 10:39:42.86 1082.733 00:36:19 Yes
47 Turkiewicz Loft - ON 0516-CU20-CP BBPD H 2 10:39:43.00 1082.669 00:36:19 Missing
48 Dutch Touch Int - ON 3687-CU20-OL BC H 4 10:39:43.19 1082.583 00:36:19 Yes
49 Andre Gomes - ON 0004-CU20-CP GRIZ H 1 10:39:43.92 1082.251 00:36:20 Yes
50 Bet 2 Win - ON 2162-CU20-BORD BCPD H 1 10:39:44.28 1082.087 00:36:20 Yes
51 Bluesky Loft - ON 2723-CU20-YRI BC H 1 10:39:44.75 1081.874 00:36:21 Yes
52 Da Cunha Team - ON 9200-CU20-CU BB H 3 10:39:44.76 1081.870 00:36:21 Yes
53 J&l Loft - CAN 7203-CU20-MISS BRNZ H 1 10:39:45.00 1081.761 00:36:21 Yes
54 Jack's Fire Loft - QC 8510-CU20-CU BB H 2 10:39:45.02 1081.752 00:36:21 Yes
55 S S16 Wings - ON 4912-CU20-CU BB H 1 10:39:46.07 1081.276 00:36:22 Yes
56 Jim Phelan & Keith Cake - AB 1210-CU20-CU BC H 1 10:39:46.17 1081.230 00:36:22 Yes
57 High-Octane - NY 4461-AU20-AA BBPD H 1 10:39:46.67 1081.004 00:36:23 Yes
58 Rpc Network - Racingpigeonsca - ON 7887-CU20-MISS BB H 1 10:39:47.19 1080.769 00:36:23 Yes
59 El Dorado Lofts Canada - BC 1782-CU20-CU El Loxias BB H 1 10:39:47.30 1080.718 00:36:23 Yes
60 Dutch Touch Int - ON 3672-CU20-OL BC H 5 10:39:47.42 1080.664 00:36:23 Yes
61 Roys Boys - ON 0914-CU20-FLAM BBPD H 1 10:39:48.00 1080.402 00:36:24 Yes
62 Duhra Loft - AB 0530-CU20-DUHR BB H 1 10:39:49.22 1079.851 00:36:25 Yes
63 Tavares & Son - ON 6403-CU20-MISS BC H 1 10:39:49.59 1079.683 00:36:25 Yes
64 Fcq - QC 20131-CU20-LAVL BBPD H 1 10:39:49.72 1079.625 00:36:26 Yes
65 Duhra Loft - AB 0608-CU20-DUHR DC H 2 10:39:50.16 1079.425 00:36:26 Yes
66 B D S Loft - ON 0607-CU20-DUHR DC H 1 10:39:50.21 1079.403 00:36:26 Yes
67 Les Deux Suzannes - ON 0605-PH20-BA BB H 1 10:39:50.29 1079.367 00:36:26 Yes
68 Roys Boys - ON 0904-CU20-FLAM DC H 2 10:39:50.66 1079.200 00:36:26 Yes
69 John Black - ON 8015-CU20-MISS BC H 2 10:39:50.77 1079.150 00:36:27 Yes
70 Lucky 7 - ON 1010-CU20-CU PEN H 1 10:39:50.90 1079.092 00:36:27 Yes
71 Wolfhillloft - ON 0110-CU20-WFHL Maxi Kitt BBWF H 2 10:39:51.50 1078.821 00:36:27 Yes
72 Michael & Guido - AB 20107-PH20-PH SLVR H 1 10:39:51.73 1078.717 00:36:28 Yes
73 El Dorado Lofts Canada - BC 1767-CU20-CU El Godelot BC H 2 10:39:51.76 1078.704 00:36:28 Yes
74 Pigeonempire.Com B & B - ON 5535-CU20-CU BC H 2 10:39:52.47 1078.383 00:36:28 Yes
75 J & D Loft - ON 57204-AU20-ARPU BBWF H 1 10:39:52.71 1078.275 00:36:29 Yes
76 Bluesky Loft - ON 2711-CU20-YRI BC H 2 10:39:52.75 1078.257 00:36:29 Yes
77 Roys Boys - ON 0910-CU20-FLAM DCPD H 3 10:39:53.30 1078.009 00:36:29 Yes
78 Pigeonempire.Com B & B - ON 5556-CU20-CU BB H 3 10:39:53.35 1077.987 00:36:29 Yes
79 Jack's Fire Loft - QC 8505-CU20-CU BC H 3 10:39:53.83 1077.770 00:36:30 Yes
80 El Dorado Lofts Canada - BC 1788-CU20-CU El Sugson BCPD H 3 10:39:53.95 1077.716 00:36:30 Yes
81 Why-Fly Loft - ON 2226-CU20-WW BBWF H 1 10:39:54.41 1077.510 00:36:30 Yes
82 B D S Loft - ON 0529-CU20-DUHR BB H 2 10:39:54.45 1077.491 00:36:30 Yes
83 Walt & Dan Gregoruk - ON 0223-CU20-TBAY BB H 2 10:39:54.78 1077.343 00:36:31 Yes
84 R & E Ridder - ON 20613-CU20-GTR Kanata Express BB H 1 10:39:55.00 1077.245 00:36:31 Yes
85 Wilk Loft - QC 20103-CU20-LAVL BB H 1 10:39:55.30 1077.109 00:36:31 Yes
86 Corbin's Crew - ON 13329-CU20-CU BC H 1 10:39:55.42 1077.055 00:36:31 Yes
87 Rpc Network - Racingpigeonsca - ON 7893-CU20-MISS BB H 2 10:39:55.74 1076.912 00:36:32 Yes
88 John Black - ON 8021-CU20-MISS BB H 3 10:39:56.13 1076.736 00:36:32 Yes
89 Ross Stacey - ON 60517-AU20-ARPU BB H 1 10:39:56.27 1076.673 00:36:32 Yes
90 B F L # 2 - ON 0004-CU20-BFL BB H 1 10:39:56.59 1076.530 00:36:32 Yes
91 Cruz & Vasco Loft - ON 4770-CU20-CU BC H 1 10:39:57.84 1075.968 00:36:34 Yes
92 Da Cunha Team - ON 9031-CU20-CU BB H 4 10:39:57.86 1075.959 00:36:34 Yes
93 Neromi Army - ON 57207-AU20-ARPU Compass BC H 1 10:39:57.93 1075.928 00:36:34 Yes
94 Big Andy - FL 0236-AU20-BGAN BB H 3 10:39:58.42 1075.708 00:36:34 Yes
95 El Dorado Lofts Canada - BC 1751-CU20-CU El Borgin RDPD H 4 10:39:58.56 1075.645 00:36:34 Yes
96 Joe Splinter - ON 5713-CU20-CU BB H 2 10:39:58.78 1075.547 00:36:35 Yes
97 Skyview Loft 2 - ON 10090-CU20-CU BC H 2 10:39:59.13 1075.390 00:36:35 Yes
98 Maple Lofts - ON 22804-CU20-CU BBWF H 2 10:39:59.26 1075.332 00:36:35 Yes
99 Assyrian Loft - ON 3935-CU20-CU BBPD H 2 10:39:59.50 1075.224 00:36:35 Yes
100 Teixeira Loft - ON 2706-CU20-CU BB H 1 10:39:59.51 1075.219 00:36:35 Yes

There are 340 bird records

Note: These Race Results are unofficial and subject to change until verified by the Race Committee and declared final.